This is the latest recevied weather packets stored in our database for station/object CE3PA-5. If no packets are shown the sender has not sent any weather packets the latest 10 day(s).
| Time | Temp. | Humidity | Pressure | Rain* | Wind** | Luminosity | Snow |
|---|---|---|---|---|---|---|---|
| 1777330538 | 10.56° C | 16% | 756.7 hPa | - | - | - | - |
| 1777329639 | 10.56° C | 16% | 756.6 hPa | - | - | - | - |
| 1777327874 | 11.67° C | 16% | 756.5 hPa | - | - | - | - |
| 1777327837 | 11.67° C | 16% | 756.5 hPa | - | - | - | - |
| 1777326937 | 12.22° C | 16% | 756.2 hPa | - | - | - | - |
| 1777326037 | 11.67° C | 16% | 756.4 hPa | - | - | - | - |
| 1777325137 | 12.22° C | 16% | 756.5 hPa | - | - | - | - |
| 1777324237 | 12.78° C | 16% | 756.6 hPa | - | - | - | - |
| 1777323337 | 13.33° C | 16% | 756.7 hPa | - | - | - | - |
| 1777322439 | 13.33° C | 15% | 756.7 hPa | - | - | - | - |
| 1777321536 | 14.44° C | 15% | 756.9 hPa | - | - | - | - |
| 1777320636 | 14.44° C | 15% | 756.8 hPa | - | - | - | - |
| 1777319737 | 15° C | 15% | 757 hPa | - | - | - | - |
| 1777318836 | 15° C | 15% | 756.9 hPa | - | - | - | - |
| 1777316135 | 16.67° C | 15% | 756.7 hPa | - | - | - | - |
| 1777315235 | 17.22° C | 15% | 756.7 hPa | - | - | - | - |
| 1777314335 | 18.33° C | 15% | 756.7 hPa | - | - | - | - |
| 1777313435 | 18.89° C | 15% | 756.8 hPa | - | - | - | - |
| 1777312535 | 19.44° C | 15% | 756.7 hPa | - | - | - | - |
| 1777311643 | 21.11° C | 15% | 756.8 hPa | - | - | - | - |
| 1777310742 | 21.11° C | 15% | 756.8 hPa | - | - | - | - |
| 1777309842 | 21.11° C | 15% | 756.9 hPa | - | - | - | - |
| 1777308942 | 22.22° C | 15% | 756.9 hPa | - | - | - | - |
| 1777308042 | 24.44° C | 14% | 757.1 hPa | - | - | - | - |
| 1777307142 | 27.22° C | 14% | 757.1 hPa | - | - | - | - |
* Rain since midnight (hover to see other rain measurements)
** Current wind speed in m/s (hover to see current wind gust speed)